Schneifelwetter: Wetterstation Hallschlag, 537 m . NN
Wetterdaten: Freitag, 06.03.2009
Datum Zeit Temp. A. Temp. 2 Feuchte A. Luftdruck Regen Wind Richtung Richtung Sonnenschein Helligkeit T Regen Taupunkt Windchill
06.03.2009 00:10 0,5 C 0,0 C 98 % 991 hPa 0,0 l/m 25,5 km/h (4 Bft) NW45 320 0 min 0 lux 0,00 min 0,2 C -11,2 C
06.03.2009 00:25 0,5 C 0,0 C 98 % 991 hPa 0,0 l/m 29,5 km/h (5 Bft) N-NW45 330 0 min 0 lux 0,00 min 0,2 C -12,6 C
06.03.2009 00:40 0,5 C 0,0 C 97 % 991 hPa 0,6 l/m 27,2 km/h (4 Bft) N-NW67.5 340 0 min 0 lux 15,00 min 0,1 C -11,8 C
06.03.2009 00:55 0,5 C 0,0 C 97 % 991 hPa 0,0 l/m 18,8 km/h (3 Bft) NW67.5 320 0 min 0 lux 0,00 min 0,1 C -8,4 C
06.03.2009 01:10 0,5 C 0,1 C 97 % 991 hPa 0,0 l/m 26,6 km/h (4 Bft) NW45 320 0 min 0 lux 0,00 min 0,1 C -11,6 C
06.03.2009 01:25 0,5 C 0,1 C 98 % 991 hPa 0,3 l/m 28,2 km/h (4 Bft) N-NW67.5 330 0 min 0 lux 15,00 min 0,2 C -12,1 C
06.03.2009 01:40 0,5 C 0,1 C 98 % 991 hPa 0,0 l/m 30,3 km/h (5 Bft) NW67.5 315 0 min 0 lux 0,00 min 0,2 C -12,8 C
06.03.2009 01:55 0,5 C 0,1 C 98 % 991 hPa 0,0 l/m 22,5 km/h (4 Bft) N-NW45 335 0 min 0 lux 0,00 min 0,2 C -10,1 C
06.03.2009 02:10 0,5 C 0,1 C 98 % 991 hPa 0,0 l/m 24,9 km/h (4 Bft) W-NW67.5 295 0 min 0 lux 0,00 min 0,2 C -11,0 C
06.03.2009 02:25 0,4 C 0,1 C 98 % 991 hPa 0,0 l/m 28,7 km/h (4 Bft) W-NW45 290 0 min 0 lux 0,00 min 0,1 C -12,4 C
06.03.2009 02:40 0,4 C 0,1 C 98 % 991 hPa 0,0 l/m 14,9 km/h (3 Bft) N-NW45 330 0 min 0 lux 0,00 min 0,1 C -6,4 C
06.03.2009 02:55 0,4 C 0,0 C 98 % 991 hPa 0,0 l/m 21,1 km/h (4 Bft) NW45 315 0 min 0 lux 0,00 min 0,1 C -9,6 C
06.03.2009 03:10 0,4 C 0,0 C 98 % 991 hPa 0,0 l/m 25,0 km/h (4 Bft) N-NW45 330 0 min 0 lux 0,00 min 0,1 C -11,2 C
06.03.2009 03:25 0,4 C 0,0 C 98 % 991 hPa 0,3 l/m 22,6 km/h (4 Bft) NW45 315 0 min 0 lux 15,00 min 0,1 C -10,2 C
06.03.2009 03:40 0,4 C 0,0 C 98 % 991 hPa 0,0 l/m 30,3 km/h (5 Bft) W-NW67.5 290 0 min 0 lux 0,00 min 0,1 C -12,9 C
06.03.2009 03:55 0,4 C 0,0 C 98 % 991 hPa 0,0 l/m 25,1 km/h (4 Bft) NW67.5 310 0 min 0 lux 0,00 min 0,1 C -11,2 C
06.03.2009 04:10 0,4 C 0,0 C 98 % 991 hPa 0,0 l/m 29,0 km/h (5 Bft) NW45 320 0 min 0 lux 0,00 min 0,1 C -12,5 C
06.03.2009 04:25 0,4 C 0,0 C 97 % 992 hPa 0,0 l/m 25,5 km/h (4 Bft) N67.5 5 0 min 0 lux 0,00 min -0,0 C -11,4 C
06.03.2009 04:40 0,4 C 0,0 C 98 % 991 hPa 0,0 l/m 18,8 km/h (3 Bft) N-NW67.5 340 0 min 0 lux 0,00 min 0,1 C -8,5 C
06.03.2009 04:55 0,3 C 0,0 C 98 % 992 hPa 0,0 l/m 22,8 km/h (4 Bft) W-NW67.5 295 0 min 0 lux 0,00 min 0,0 C -10,5 C
06.03.2009 05:10 0,4 C 0,0 C 98 % 992 hPa 0,0 l/m 14,0 km/h (3 Bft) N-NW67.5 345 0 min 0 lux 0,00 min 0,1 C -5,9 C
06.03.2009 05:25 0,4 C 0,0 C 98 % 992 hPa 0,0 l/m 26,6 km/h (4 Bft) NW67.5 315 0 min 0 lux 0,00 min 0,1 C -11,7 C
06.03.2009 05:40 0,4 C 0,0 C 98 % 992 hPa 0,0 l/m 22,9 km/h (4 Bft) NW67.5 305 0 min 0 lux 0,00 min 0,1 C -10,4 C
06.03.2009 05:55 0,4 C 0,0 C 98 % 993 hPa 0,0 l/m 28,9 km/h (5 Bft) N-NW67.5 340 0 min 0 lux 0,00 min 0,1 C -12,5 C
06.03.2009 06:10 0,4 C 0,0 C 98 % 993 hPa 0,0 l/m 23,1 km/h (4 Bft) NW22.5 320 0 min 0 lux 0,00 min 0,1 C -10,4 C
06.03.2009 06:25 0,5 C 0,1 C 98 % 993 hPa 0,0 l/m 32,7 km/h (5 Bft) N-NW67.5 340 0 min 0 lux 0,00 min 0,2 C -13,5 C
06.03.2009 06:40 0,5 C 0,1 C 98 % 993 hPa 0,0 l/m 21,4 km/h (4 Bft) W-NW67.5 295 0 min 0 lux 0,00 min 0,2 C -9,6 C
06.03.2009 06:55 0,6 C 0,1 C 98 % 993 hPa 0,0 l/m 23,5 km/h (4 Bft) NW67.5 305 0 min 59 lux 0,00 min 0,3 C -10,3 C
06.03.2009 07:10 0,7 C 0,1 C 98 % 994 hPa 0,0 l/m 19,8 km/h (3 Bft) NW45 310 0 min 243 lux 0,00 min 0,4 C -8,6 C
06.03.2009 07:25 0,7 C 0,2 C 98 % 994 hPa 0,9 l/m 19,8 km/h (3 Bft) W-NW45 300 0 min 808 lux 15,00 min 0,4 C -8,6 C
06.03.2009 07:40 0,7 C 0,1 C 98 % 994 hPa 0,0 l/m 12,5 km/h (3 Bft) NW67.5 320 0 min 1,07 klux 0,00 min 0,4 C -4,5 C
06.03.2009 08:00 0,7 C 0,2 C 98 % 994 hPa 0,0 l/m 36,2 km/h (5 Bft) NW45 310 0 min 1,75 klux 0,00 min 0,4 C -14,1 C
06.03.2009 08:15 0,7 C 0,3 C 98 % 994 hPa 0,0 l/m 21,3 km/h (4 Bft) W-NW67.5 300 0 min 2,83 klux 0,00 min 0,4 C -9,3 C
06.03.2009 08:31 0,9 C 0,3 C 97 % 995 hPa 0,0 l/m 27,2 km/h (4 Bft) NW67.5 315 0 min 4,21 klux 0,00 min 0,5 C -11,3 C
06.03.2009 08:46 0,8 C 0,4 C 97 % 995 hPa 0,0 l/m 11,3 km/h (2 Bft) W-NW67.5 300 0 min 5,18 klux 0,00 min 0,4 C -3,6 C
06.03.2009 09:01 0,9 C 0,5 C 97 % 995 hPa 0,0 l/m 20,5 km/h (4 Bft) NW67.5 315 0 min 6,18 klux 0,00 min 0,5 C -8,7 C
06.03.2009 09:16 1,1 C 0,7 C 97 % 995 hPa 0,0 l/m 19,3 km/h (3 Bft) NW45 315 0 min 9,1 klux 0,00 min 0,7 C -7,9 C
06.03.2009 09:31 1,2 C 0,8 C 96 % 995 hPa 0,0 l/m 33,1 km/h (5 Bft) NW45 315 0 min 9,9 klux 0,00 min 0,6 C -12,6 C
06.03.2009 09:46 1,2 C 0,9 C 96 % 995 hPa 0,0 l/m 22,7 km/h (4 Bft) NW45 315 0 min 10,5 klux 0,00 min 0,6 C -9,2 C
06.03.2009 10:00 1,2 C 1,0 C 96 % 995 hPa 0,0 l/m 28,4 km/h (4 Bft) W-NW67.5 295 0 min 10,6 klux 0,00 min 0,6 C -11,2 C
06.03.2009 10:16 1,4 C 1,0 C 97 % 996 hPa 0,0 l/m 31,5 km/h (5 Bft) NW67.5 305 0 min 14,1 klux 0,00 min 1,0 C -11,9 C
06.03.2009 10:31 1,4 C 1,2 C 97 % 996 hPa 0,0 l/m 21,3 km/h (4 Bft) W-NW45 295 0 min 14,6 klux 0,00 min 1,0 C -8,4 C
06.03.2009 10:46 1,5 C 1,4 C 96 % 996 hPa 0,0 l/m 27,2 km/h (4 Bft) W45 280 0 min 16,3 klux 0,00 min 0,9 C -10,4 C
06.03.2009 11:01 1,6 C 1,4 C 96 % 996 hPa 0,0 l/m 23,0 km/h (4 Bft) W-NW67.5 290 0 min 17,4 klux 0,00 min 1,0 C -8,8 C
06.03.2009 11:16 1,7 C 1,5 C 96 % 996 hPa 0,0 l/m 22,3 km/h (4 Bft) W-NW67.5 295 0 min 16,2 klux 0,00 min 1,1 C -8,4 C
06.03.2009 11:31 1,7 C 1,6 C 96 % 996 hPa 0,0 l/m 41,6 km/h (6 Bft) NW45 305 0 min 14,4 klux 0,00 min 1,1 C -13,7 C
06.03.2009 11:45 1,8 C 1,7 C 96 % 997 hPa 0,0 l/m 31,9 km/h (5 Bft) NW67.5 320 0 min 18,4 klux 0,00 min 1,2 C -11,4 C
06.03.2009 12:00 1,8 C 1,8 C 96 % 997 hPa 0,0 l/m 27,0 km/h (4 Bft) W-NW67.5 295 0 min 14,1 klux 0,00 min 1,2 C -10,0 C
06.03.2009 12:16 1,8 C 1,8 C 97 % 997 hPa 0,0 l/m 21,1 km/h (4 Bft) W45 280 0 min 12,3 klux 0,00 min 1,4 C -7,8 C
06.03.2009 12:31 2,0 C 2,0 C 96 % 997 hPa 0,0 l/m 25,5 km/h (4 Bft) W-NW67.5 285 0 min 19,5 klux 0,00 min 1,4 C -9,2 C
06.03.2009 12:46 2,3 C 2,4 C 96 % 997 hPa 3,0 l/m 21,1 km/h (4 Bft) W-NW45 290 0 min 19,8 klux 15,00 min 1,7 C -7,1 C
06.03.2009 13:01 2,3 C 2,5 C 95 % 997 hPa 0,0 l/m 22,8 km/h (4 Bft) W-NW45 290 0 min 16,5 klux 0,00 min 1,6 C -7,8 C
06.03.2009 13:16 2,3 C 2,5 C 95 % 997 hPa 0,0 l/m 32,6 km/h (5 Bft) W-NW45 285 0 min 16,3 klux 0,00 min 1,6 C -10,9 C
06.03.2009 13:31 2,3 C 2,5 C 94 % 997 hPa 0,0 l/m 24,5 km/h (4 Bft) W67.5 275 0 min 16,1 klux 0,00 min 1,4 C -8,4 C
06.03.2009 13:45 2,3 C 2,7 C 95 % 997 hPa 0,0 l/m 30,7 km/h (5 Bft) W67.5 275 0 min 19,4 klux 0,00 min 1,6 C -10,4 C
06.03.2009 14:01 2,4 C 2,7 C 94 % 997 hPa 0,0 l/m 33,7 km/h (5 Bft) W-NW67.5 285 0 min 16,5 klux 0,00 min 1,5 C -11,0 C
06.03.2009 14:16 2,3 C 2,6 C 94 % 998 hPa 0,0 l/m 30,5 km/h (5 Bft) W67.5 280 0 min 17,1 klux 0,00 min 1,4 C -10,3 C
06.03.2009 14:31 2,2 C 2,6 C 94 % 998 hPa 0,0 l/m 28,4 km/h (4 Bft) W45 270 0 min 13,9 klux 0,00 min 1,3 C -9,8 C
06.03.2009 14:46 2,0 C 2,4 C 95 % 998 hPa 0,0 l/m 23,8 km/h (4 Bft) NW67.5 305 0 min 13,2 klux 0,00 min 1,3 C -8,6 C
06.03.2009 15:01 1,9 C 2,3 C 94 % 998 hPa 0,0 l/m 33,1 km/h (5 Bft) NW45 305 0 min 11,4 klux 0,00 min 1,0 C -11,6 C
06.03.2009 15:16 2,0 C 2,3 C 95 % 998 hPa 0,0 l/m 17,0 km/h (3 Bft) NW67.5 310 0 min 12,7 klux 0,00 min 1,3 C -5,6 C
06.03.2009 15:30 2,1 C 2,2 C 95 % 998 hPa 0,0 l/m 21,8 km/h (4 Bft) W-NW45 295 0 min 13,1 klux 0,00 min 1,4 C -7,7 C
06.03.2009 15:46 2,1 C 2,1 C 94 % 999 hPa 0,0 l/m 23,6 km/h (4 Bft) W-NW45 285 0 min 10,9 klux 0,00 min 1,2 C -8,4 C
06.03.2009 16:01 2,1 C 2,1 C 95 % 999 hPa 0,0 l/m 19,3 km/h (3 Bft) W45 270 0 min 10,4 klux 0,00 min 1,4 C -6,6 C
06.03.2009 16:16 2,2 C 2,2 C 94 % 999 hPa 0,0 l/m 35,6 km/h (5 Bft) W-NW45 300 0 min 13,7 klux 0,00 min 1,3 C -11,7 C
06.03.2009 16:31 2,1 C 2,2 C 93 % 999 hPa 0,0 l/m 30,5 km/h (5 Bft) W45 275 0 min 13,4 klux 0,00 min 1,1 C -10,6 C
06.03.2009 16:46 2,2 C 2,3 C 93 % 999 hPa 0,0 l/m 28,3 km/h (4 Bft) W67.5 280 0 min 13,8 klux 0,00 min 1,2 C -9,8 C
06.03.2009 17:01 2,1 C 2,3 C 93 % 999 hPa 0,0 l/m 22,4 km/h (4 Bft) W67.5 260 0 min 8,46 klux 0,00 min 1,1 C -7,9 C
06.03.2009 17:16 2,0 C 2,1 C 94 % 1000 hPa 0,0 l/m 20,8 km/h (4 Bft) W45 280 0 min 5,45 klux 0,00 min 1,1 C -7,4 C
06.03.2009 17:30 1,9 C 1,9 C 94 % 1000 hPa 0,0 l/m 21,6 km/h (4 Bft) W-NW45 290 0 min 4,88 klux 0,00 min 1,0 C -7,9 C
06.03.2009 17:46 1,9 C 1,9 C 94 % 1000 hPa 0,0 l/m 20,8 km/h (4 Bft) W45 280 0 min 5,04 klux 0,00 min 1,0 C -7,5 C
06.03.2009 18:01 1,9 C 1,8 C 94 % 1000 hPa 0,0 l/m 19,5 km/h (3 Bft) W45 260 0 min 2,91 klux 0,00 min 1,0 C -7,0 C
06.03.2009 18:16 1,6 C 1,7 C 93 % 1001 hPa 0,0 l/m 28,7 km/h (4 Bft) W-NW45 290 0 min 964 lux 0,00 min 0,6 C -10,8 C
06.03.2009 18:31 1,5 C 1,4 C 93 % 1001 hPa 0,0 l/m 21,1 km/h (4 Bft) W45 280 0 min 762 lux 0,00 min 0,5 C -8,2 C
06.03.2009 18:46 1,2 C 1,1 C 92 % 1001 hPa 0,0 l/m 20,0 km/h (4 Bft) W-SW22.5 255 0 min 174 lux 0,00 min 0,0 C -8,1 C
06.03.2009 19:01 1,0 C 1,0 C 93 % 1001 hPa 0,0 l/m 16,6 km/h (3 Bft) W22.5 270 0 min 22 lux 0,00 min -0,0 C -6,7 C
06.03.2009 19:15 0,8 C 0,8 C 92 % 1001 hPa 0,0 l/m 19,3 km/h (3 Bft) W45 280 0 min 3 lux 0,00 min -0,3 C -8,3 C
06.03.2009 19:31 0,7 C 0,6 C 92 % 1002 hPa 0,0 l/m 22,6 km/h (4 Bft) W45 275 0 min 0 lux 0,00 min -0,4 C -9,8 C
06.03.2009 19:46 0,5 C 0,4 C 92 % 1002 hPa 0,0 l/m 22,0 km/h (4 Bft) W67.5 275 0 min 0 lux 0,00 min -0,6 C -9,9 C
06.03.2009 20:01 0,3 C 0,2 C 92 % 1002 hPa 0,0 l/m 23,8 km/h (4 Bft) W45 270 0 min 0 lux 0,00 min -0,8 C -10,9 C
06.03.2009 20:16 0,3 C 0,1 C 92 % 1002 hPa 0,0 l/m 40,1 km/h (6 Bft) W45 275 0 min 0 lux 0,00 min -0,8 C -15,5 C
06.03.2009 20:31 0,2 C 0,1 C 92 % 1003 hPa 0,0 l/m 24,4 km/h (4 Bft) W45 275 0 min 0 lux 0,00 min -0,9 C -11,2 C
06.03.2009 20:46 0,1 C 0,0 C 93 % 1002 hPa 0,0 l/m 20,3 km/h (4 Bft) W-NW45 285 0 min 0 lux 0,00 min -0,9 C -9,6 C
06.03.2009 21:00 0,1 C 0,0 C 93 % 1003 hPa 0,0 l/m 29,0 km/h (5 Bft) W45 275 0 min 0 lux 0,00 min -0,9 C -13,0 C
06.03.2009 21:16 0,1 C 0,0 C 93 % 1003 hPa 0,0 l/m 26,9 km/h (4 Bft) W45 275 0 min 0 lux 0,00 min -0,9 C -12,3 C
06.03.2009 21:31 0,0 C 0,0 C 93 % 1003 hPa 0,0 l/m 25,2 km/h (4 Bft) W22.5 270 0 min 0 lux 0,00 min -1,0 C -11,8 C
06.03.2009 21:46 0,0 C -0,1 C 93 % 1003 hPa 0,0 l/m 14,6 km/h (3 Bft) W45 275 0 min 0 lux 0,00 min -1,0 C -6,7 C
06.03.2009 22:01 -0,2 C -0,3 C 93 % 1003 hPa 0,0 l/m 14,8 km/h (3 Bft) W45 275 0 min 0 lux 0,00 min -1,2 C -7,1 C
06.03.2009 22:16 -0,2 C -0,2 C 93 % 1003 hPa 0,0 l/m 17,0 km/h (3 Bft) W-NW45 285 0 min 0 lux 0,00 min -1,2 C -8,4 C
06.03.2009 22:31 -0,2 C -0,3 C 93 % 1004 hPa 0,0 l/m 28,1 km/h (4 Bft) W45 280 0 min 0 lux 0,00 min -1,2 C -13,1 C
06.03.2009 22:45 -0,3 C -0,3 C 93 % 1004 hPa 0,0 l/m 19,9 km/h (4 Bft) W45 260 0 min 0 lux 0,00 min -1,3 C -10,0 C
06.03.2009 23:01 -0,4 C -0,3 C 93 % 1004 hPa 0,0 l/m 20,5 km/h (4 Bft) W-NW45 285 0 min 0 lux 0,00 min -1,4 C -10,4 C
06.03.2009 23:16 -0,4 C -0,3 C 93 % 1004 hPa 0,0 l/m 18,6 km/h (3 Bft) W45 270 0 min 0 lux 0,00 min -1,4 C -9,5 C
06.03.2009 23:31 -0,4 C -0,4 C 92 % 1004 hPa 0,0 l/m 19,8 km/h (3 Bft) W45 280 0 min 0 lux 0,00 min -1,5 C -10,1 C
06.03.2009 23:46 -0,4 C -0,3 C 92 % 1004 hPa 0,0 l/m 22,1 km/h (4 Bft) W22.5 270 0 min 0 lux 0,00 min -1,5 C -11,1 C
06.03.2009 23:55 -0,4 C -0,3 C 91 % 1004 hPa 0,0 l/m 19,5 km/h (3 Bft) W45 265 0 min 0 lux 0,00 min -1,7 C -9,9 C
_ Min-Zeit 23:01 23:31 23:55 00:10 - 08:46 - - - - - 23:55 20:16
Minimum _ -0,4 C -0,4 C 91 % 991 hPa - 11,3 km/h (2 Bft) - - - - - -1,7 C -15,5 C
_ Max-Zeit 14:01 13:45 00:10 22:31 12:46 11:31 - - 00:10 12:46 00:40 12:46 08:46
Maximum _ 2,4 C 2,7 C 98 % 1004 hPa 3,0 l/m 41,6 km/h
NW (6 Bft)
- - 0 min 19,8 klux 15,00 min 1,7 C -3,6 C
Durchschnitt _ 1,0 C 0,8 C 95 % 997 hPa #5,1 l/m 24,3 km/h (4 Bft) W - #0 min. 5,17 klux #1:15 h 0,3 C -9,9 C